Lincoln, NE

9:06 PM CST on November 22, 2019 (GMT -0600)
Lincoln Municipal

Weather History for KLNK - August, 2019

Change the Weather History Date:

Wednesday, August 21, 2019

  Actual Average Record
Temperature  
Mean Temperature 74 °F 75 °F  
Max Temperature 84 °F 86 °F 104 °F (1929)
Min Temperature 64 °F 63 °F 47 °F (1890)
Degree Days  
Heating Degree Days 0 0  
Month to date heating degree days 0 0  
Since 1 June heating degree days 6 17  
Since 1 July heating degree days 0 1  
Cooling Degree Days 9 10  
Month to date cooling degree days 244 236  
Year to date cooling degree days 990 947  
Since 1 June cooling degree days 918 868  
Growing Degree Days 20 (Base 50)    
Moisture  
Dew Point 69 °F    
Average Humidity 86    
Maximum Humidity 93    
Minimum Humidity 79    
Precipitation  
Precipitation 0.15 in 0.12 in 2.41 in (2002)
Month to date precipitation 2.11 2.32  
Year to date precipitation 23.98 20.41  
Snow  
Snow 0.00 in 0.00 in T in (1989)
Month to date snowfall 0.0 0.0  
Since 1 June snowfall 0.0 0.0  
Since 1 July snowfall 0.0 0.0  
Snow Depth 0.00 in    
Sea Level Pressure  
Sea Level Pressure 30.02 in    
Wind  
Wind Speed 9 mph (NE)    
Max Wind Speed 22 mph    
Max Gust Speed 30 mph    
Visibility 10 miles    
Events Rain , Thunderstorm    
T = Trace of Precipitation, MM = Missing Value Source: NWS Daily Summary

Daily Weather History Graph

Daily Weather History Graph

Search for Another Location

Airport or City:

Astronomy

Aug. 21, 2019 Rise Set
Actual Time 6:42 AM CDT 8:16 PM CDT
Civil Twilight 6:13 AM CDT 8:45 PM CDT
Nautical Twilight 5:38 AM CDT 9:20 PM CDT
Astronomical Twilight 5:01 AM CDT 9:57 PM CDT
Moon 11:32 PM CDT (8/21) 12:22 PM CDT (8/21)
Length of Visible Light 14h 31m
Length of Day
13h 33m
Waning Gibbous, 69% of the Moon is Illuminated
Aug 21
Waning Gibbous
Aug 23
Last Quarter
Aug 30
New
Sep 5
First Quarter
Sep 13
Full

Hourly Weather History & Observations

Time (CDT) Temp. Heat Index Dew Point Humidity Pressure Visibility Wind Dir Wind Speed Gust Speed Precip Events Conditions
12:39 AM 81.0 °F 87.9 °F 77.0 °F 88% 30.01 in 9.0 mi South 4.6 mph - 0.06 in Rain , Thunderstorm Light Rain
12:54 AM 82.9 °F 90.8 °F 75.9 °F 79% 29.94 in 10.0 mi SE 18.4 mph 23.0 mph 0.06 in   Scattered Clouds
1:01 AM 84.0 °F 91.2 °F 73.9 °F 72% 29.98 in 10.0 mi SE 10.4 mph - N/A Thunderstorm Partly Cloudy
1:16 AM 82.0 °F 90.2 °F 77.0 °F 85% 29.97 in 10.0 mi SE 5.8 mph - N/A   Clear
1:54 AM 82.0 °F 88.6 °F 75.0 °F 79% 29.87 in 10.0 mi East 17.3 mph 29.9 mph N/A   Scattered Clouds
2:54 AM 80.1 °F 85.4 °F 75.9 °F 87% 29.93 in 9.0 mi NE 8.1 mph - N/A   Scattered Clouds
3:01 AM 80.1 °F 85.8 °F 77.0 °F 90% 30.01 in 8.0 mi Variable 4.6 mph - N/A   Mostly Cloudy
3:10 AM 78.1 °F - 66.0 °F 66% 30.02 in 10.0 mi WSW 9.2 mph 21.9 mph N/A   Overcast
3:24 AM 79.0 °F - 64.9 °F 62% 30.02 in 10.0 mi Variable 6.9 mph - 0.00 in Rain Light Rain
3:54 AM 73.0 °F - 66.9 °F 81% 29.98 in 10.0 mi West 6.9 mph - 0.05 in Rain , Thunderstorm Light Rain
4:54 AM 72.0 °F - 68.0 °F 87% 29.96 in 10.0 mi East 6.9 mph - 0.04 in Rain , Thunderstorm Light Rain
5:38 AM 71.1 °F - 66.9 °F 87% 29.99 in 9.0 mi North 5.8 mph 16.1 mph 0.02 in Rain Light Rain
5:49 AM 71.6 °F - 66.2 °F 83% 30.03 in 9.0 mi West 6.9 mph - 0.03 in Rain , Thunderstorm Light Thunderstorms and Rain
5:54 AM 72.0 °F - 68.0 °F 87% 30.01 in 10.0 mi SSW 12.7 mph 18.4 mph 0.04 in Rain , Thunderstorm Light Thunderstorms and Rain
6:05 AM 71.1 °F - 66.9 °F 87% 30.05 in 9.0 mi SSW 8.1 mph - 0.01 in Rain Light Rain
6:54 AM 72.0 °F - 66.9 °F 84% 30.04 in 10.0 mi Calm Calm - 0.01 in   Clear
7:54 AM 71.1 °F - 66.9 °F 87% 30.02 in 10.0 mi SE 6.9 mph - N/A   Partly Cloudy
8:54 AM 73.0 °F - 69.1 °F 87% 30.06 in 10.0 mi NE 8.1 mph - 0.00 in   Mostly Cloudy
9:49 AM 73.4 °F - 69.8 °F 88% 30.12 in 8.0 mi WNW 12.7 mph - 0.00 in Rain Light Rain
9:54 AM 73.0 °F - 69.1 °F 87% 30.08 in 8.0 mi WNW 13.8 mph - 0.00 in Rain Light Rain
10:54 AM 73.0 °F - 68.0 °F 84% 30.06 in 10.0 mi WNW 4.6 mph - 0.00 in   Mostly Cloudy
11:54 AM 73.0 °F - 69.1 °F 87% 30.01 in 10.0 mi SSE 12.7 mph - 0.01 in Rain Light Rain
12:01 PM 73.0 °F - 69.1 °F 87% 30.05 in 10.0 mi South 15.0 mph - 0.00 in Rain Light Rain
12:48 PM 75.2 °F - 69.8 °F 83% 30.08 in 10.0 mi NNE 8.1 mph - 0.00 in   Mostly Cloudy
12:54 PM 75.0 °F - 69.1 °F 82% 30.04 in 10.0 mi North 12.7 mph - 0.00 in   Mostly Cloudy
1:05 PM 73.9 °F - 69.1 °F 85% 30.08 in 10.0 mi North 13.8 mph - N/A   Overcast
1:25 PM 73.9 °F - 68.0 °F 82% 30.09 in 10.0 mi NNE 12.7 mph - N/A   Overcast
1:54 PM 73.0 °F - 68.0 °F 84% 30.05 in 10.0 mi NE 11.5 mph - N/A   Overcast
2:54 PM 73.0 °F - 66.9 °F 81% 30.03 in 10.0 mi NNE 15.0 mph - 0.00 in   Partly Cloudy
3:54 PM 72.0 °F - 66.0 °F 81% 30.04 in 10.0 mi NE 13.8 mph - 0.00 in Rain Light Rain
4:54 PM 71.1 °F - 64.9 °F 81% 30.03 in 10.0 mi NE 15.0 mph 23.0 mph 0.00 in Rain Light Rain
5:54 PM 71.1 °F - 64.9 °F 81% 30.03 in 10.0 mi NE 11.5 mph - 0.00 in   Overcast
6:54 PM 71.1 °F - 64.0 °F 78% 30.03 in 10.0 mi ESE 6.9 mph - 0.00 in   Overcast
7:54 PM 71.1 °F - 64.9 °F 81% 30.01 in 10.0 mi ESE 5.8 mph - N/A   Overcast
8:54 PM 66.9 °F - 63.0 °F 87% 30.01 in 10.0 mi NNE 4.6 mph - N/A   Clear
10:54 PM 64.9 °F - 62.1 °F 90% 30.06 in 10.0 mi NNE 4.6 mph - N/A   Clear
11:54 PM 64.9 °F - 62.1 °F 90% 30.06 in 10.0 mi North 5.8 mph - N/A   Clear